| time (UTC) | temp C | wind direction | speed KPH | gust KPH | rain 1hr cm | rain 24hr cm | rain mn cm | humidity % | barometer mb |
| 20260510104548 | 17 | 238 | 0.0 | 0.0 | 0.00 | 0.00 | 0.00 | 99 | 1012.2 |
| 20260510104044 | 17 | 238 | 0.0 | 0.0 | 0.00 | 0.00 | 0.00 | 99 | 1012.3 |
| 20260510103542 | 17 | 238 | 0.0 | 0.0 | 0.00 | 0.00 | 0.00 | 99 | 1012.2 |
| 20260510103037 | 17 | 238 | 0.0 | 0.0 | 0.00 | 0.00 | 0.00 | 99 | 1012.4 |
| 20260510102533 | 17 | 238 | 0.0 | 0.0 | 0.00 | 0.00 | 0.00 | 99 | 1012.1 |
| 20260510102030 | 17 | 238 | 0.0 | 0.0 | 0.00 | 0.00 | 0.00 | 99 | 1012.1 |
| 20260510101527 | 17 | 230 | 0.0 | 0.0 | 0.00 | 0.00 | 0.00 | 99 | 1012.1 |
| 20260510101026 | 17 | 238 | 0.0 | 0.0 | 0.00 | 0.00 | 0.00 | 99 | 1012.0 |
| 20260510100522 | 17 | 236 | 0.0 | 0.0 | 0.00 | 0.00 | 0.00 | 99 | 1011.9 |
| 20260510100019 | 17 | 238 | 0.0 | 0.0 | 0.00 | 0.00 | 0.00 | 99 | 1012.1 |
| 20260510095514 | 17 | 238 | 0.0 | 0.0 | 0.00 | 0.00 | 0.00 | 99 | 1012.1 |
| 20260510095014 | 17 | 238 | 0.0 | 0.0 | 0.00 | 0.00 | 0.00 | 99 | 1011.9 |
| 20260510094508 | 17 | 238 | 0.0 | 0.0 | 0.00 | 0.00 | 0.00 | 99 | 1012.0 |
| 20260510094004 | 17 | 238 | 0.0 | 0.0 | 0.00 | 0.00 | 0.00 | 99 | 1011.9 |
| 20260510093501 | 17 | 238 | 0.0 | 0.0 | 0.00 | 0.00 | 0.00 | 99 | 1011.7 |
| 20260510092957 | 17 | 237 | 0.0 | 0.0 | 0.00 | 0.00 | 0.00 | 99 | 1011.6 |
| 20260510092454 | 17 | 238 | 0.0 | 0.0 | 0.00 | 0.00 | 0.00 | 99 | 1011.6 |
| 20260510091948 | 17 | 238 | 0.0 | 0.0 | 0.00 | 0.00 | 0.00 | 99 | 1011.5 |
| 20260510091446 | 17 | 237 | 0.0 | 0.0 | 0.00 | 0.00 | 0.00 | 99 | 1011.5 |
| 20260510090942 | 17 | 237 | 0.0 | 0.0 | 0.00 | 0.00 | 0.00 | 99 | 1011.3 |
| 20260510090439 | 16 | 235 | 0.0 | 0.0 | 0.00 | 0.00 | 0.00 | 99 | 1011.2 |
| 20260510085934 | 16 | 235 | 0.0 | 0.0 | 0.00 | 0.00 | 0.00 | 99 | 1011.3 |
| 20260510085430 | 16 | 237 | 0.0 | 0.0 | 0.00 | 0.00 | 0.00 | 99 | 1011.2 |
| 20260510084925 | 16 | 237 | 0.0 | 0.0 | 0.00 | 0.00 | 0.00 | 99 | 1011.1 |
| 20260510084423 | 16 | 237 | 0.0 | 0.0 | 0.00 | 0.00 | 0.00 | 99 | 1011.1 |
| 20260510083920 | 16 | 236 | 0.0 | 0.0 | 0.00 | 0.00 | 0.00 | 99 | 1011.1 |
| 20260510083416 | 16 | 236 | 0.0 | 0.0 | 0.00 | 0.00 | 0.00 | 99 | 1011.0 |
| 20260510082911 | 16 | 236 | 0.0 | 0.0 | 0.00 | 0.00 | 0.00 | 99 | 1011.0 |
| 20260510082409 | 16 | 236 | 0.0 | 0.0 | 0.00 | 0.00 | 0.00 | 99 | 1010.8 |
| 20260510081908 | 16 | 237 | 0.0 | 0.0 | 0.00 | 0.00 | 0.00 | 99 | 1011.0 |
| 20260510081404 | 16 | 237 | 0.0 | 0.0 | 0.00 | 0.00 | 0.00 | 99 | 1010.8 |
| 20260510080901 | 16 | 236 | 0.0 | 0.0 | 0.00 | 0.00 | 0.00 | 99 | 1010.7 |
| 20260510080359 | 17 | 236 | 0.0 | 0.0 | 0.00 | 0.00 | 0.00 | 99 | 1010.9 |
| 20260510075857 | 17 | 236 | 0.0 | 0.0 | 0.00 | 0.00 | 0.00 | 99 | 1011.0 |
| 20260510075355 | 17 | 236 | 0.0 | 0.0 | 0.00 | 0.00 | 0.00 | 99 | 1010.8 |
| 20260510074851 | 17 | 237 | 0.0 | 0.0 | 0.00 | 0.00 | 0.00 | 99 | 1010.9 |
| 20260510074348 | 17 | 237 | 0.0 | 0.0 | 0.00 | 0.00 | 0.00 | 99 | 1010.9 |
| 20260510073844 | 17 | 236 | 0.0 | 0.0 | 0.00 | 0.00 | 0.00 | 99 | 1010.9 |
| 20260510073340 | 17 | 237 | 0.0 | 0.0 | 0.00 | 0.00 | 0.00 | 99 | 1010.8 |
| 20260510072836 | 17 | 237 | 0.0 | 0.0 | 0.00 | 0.00 | 0.00 | 99 | 1010.8 |
| 20260510072334 | 17 | 236 | 0.0 | 0.0 | 0.00 | 0.00 | 0.00 | 99 | 1010.7 |
| 20260510071830 | 17 | 237 | 0.0 | 0.0 | 0.00 | 0.00 | 0.00 | 99 | 1011.0 |
| 20260510071326 | 17 | 237 | 0.0 | 0.0 | 0.00 | 0.00 | 0.00 | 99 | 1010.8 |
| 20260510070825 | 17 | 236 | 0.0 | 0.0 | 0.00 | 0.00 | 0.00 | 99 | 1010.8 |
| 20260510070321 | 17 | 236 | 0.0 | 0.0 | 0.00 | 0.00 | 0.00 | 99 | 1011.0 |
| 20260510065816 | 17 | 236 | 0.0 | 0.0 | 0.00 | 0.00 | 0.00 | 99 | 1011.0 |
| 20260510065313 | 17 | 236 | 0.0 | 0.0 | 0.00 | 0.00 | 0.00 | 99 | 1010.8 |
| 20260510064810 | 17 | 238 | 0.0 | 0.0 | 0.00 | 0.00 | 0.00 | 99 | 1010.8 |
| 20260510064308 | 17 | 238 | 0.0 | 0.0 | 0.00 | 0.00 | 0.00 | 99 | 1011.1 |
| 20260510063809 | 17 | 238 | 0.0 | 0.0 | 0.00 | 0.00 | 0.00 | 99 | 1011.0 |
| 20260510063305 | 17 | 238 | 0.0 | 0.0 | 0.00 | 0.00 | 0.00 | 99 | 1010.9 |
| 20260510062802 | 17 | 238 | 0.0 | 0.0 | 0.00 | 0.00 | 0.00 | 99 | 1010.7 |
| 20260510062257 | 17 | 238 | 0.0 | 0.0 | 0.00 | 0.00 | 0.00 | 99 | 1010.4 |
| 20260510061753 | 17 | 238 | 0.0 | 0.0 | 0.00 | 0.00 | 0.00 | 99 | 1010.8 |
| 20260510061251 | 17 | 238 | 0.0 | 0.0 | 0.00 | 0.00 | 0.00 | 99 | 1010.6 |
| 20260510060746 | 17 | 238 | 0.0 | 0.0 | 0.00 | 0.00 | 0.00 | 99 | 1010.8 |
| 20260510060243 | 17 | 238 | 0.0 | 0.0 | 0.00 | 0.00 | 0.00 | 99 | 1010.9 |
| 20260510055740 | 17 | 238 | 0.0 | 0.0 | 0.00 | 0.00 | 0.00 | 99 | 1010.8 |
| 20260510055239 | 18 | 238 | 0.0 | 0.0 | 0.00 | 0.00 | 0.00 | 99 | 1010.7 |
| 20260510054738 | 18 | 238 | 0.0 | 0.0 | 0.00 | 0.00 | 0.00 | 99 | 1010.9 |
| 20260510054234 | 18 | 238 | 0.0 | 0.0 | 0.00 | 0.00 | 0.00 | 99 | 1011.1 |
| 20260510053733 | 18 | 237 | 0.0 | 0.0 | 0.00 | 0.00 | 0.00 | 99 | 1010.7 |
| 20260510053231 | 18 | 237 | 0.0 | 0.0 | 0.00 | 0.00 | 0.00 | 99 | 1011.2 |
| 20260510052726 | 18 | 237 | 0.0 | 0.0 | 0.00 | 0.00 | 0.00 | 99 | 1011.1 |
| 20260510052223 | 18 | 237 | 0.0 | 0.0 | 0.00 | 0.00 | 0.00 | 99 | 1010.7 |
| 20260510051718 | 18 | 237 | 0.0 | 0.0 | 0.00 | 0.00 | 0.00 | 98 | 1010.9 |
| 20260510051215 | 18 | 237 | 0.0 | 0.0 | 0.00 | 0.00 | 0.00 | 98 | 1010.7 |
| 20260510050712 | 18 | 237 | 0.0 | 0.0 | 0.00 | 0.00 | 0.00 | 98 | 1011.0 |
| 20260510050209 | 18 | 237 | 0.0 | 0.0 | 0.00 | 0.00 | 0.00 | 98 | 1011.0 |
| 20260510045706 | 18 | 237 | 0.0 | 0.0 | 0.00 | 0.00 | 0.00 | 98 | 1010.9 |
| 20260510045203 | 18 | 237 | 0.0 | 0.0 | 0.00 | 0.00 | 0.00 | 98 | 1010.8 |
| 20260510044659 | 18 | 237 | 0.0 | 0.0 | 0.00 | 0.00 | 0.00 | 97 | 1010.8 |
| 20260510044157 | 18 | 237 | 0.0 | 0.0 | 0.00 | 0.00 | 0.00 | 97 | 1011.0 |
| 20260510043652 | 18 | 237 | 0.0 | 0.0 | 0.00 | 0.00 | 0.00 | 97 | 1011.1 |
| 20260510043149 | 18 | 237 | 0.0 | 0.0 | 0.00 | 0.00 | 0.00 | 97 | 1011.1 |
| 20260510042646 | 19 | 237 | 0.0 | 0.0 | 0.00 | 0.00 | 0.00 | 96 | 1011.1 |
| 20260510042142 | 19 | 236 | 0.0 | 0.0 | 0.00 | 0.00 | 0.00 | 96 | 1011.0 |
| 20260510041639 | 19 | 234 | 0.0 | 0.0 | 0.00 | 0.00 | 0.00 | 96 | 1011.2 |
| 20260510041136 | 19 | 231 | 0.0 | 0.0 | 0.00 | 0.00 | 0.00 | 96 | 1011.2 |
| 20260510040634 | 19 | 231 | 0.0 | 0.0 | 0.00 | 0.00 | 0.00 | 96 | 1011.1 |
| 20260510040130 | 19 | 238 | 0.0 | 0.0 | 0.00 | 0.00 | 0.00 | 96 | 1011.5 |
| 20260510035626 | 20 | 237 | 0.0 | 0.0 | 0.00 | 1.73 | 1.73 | 96 | 1011.3 |
| 20260510035121 | 20 | 237 | 0.0 | 0.0 | 0.00 | 1.73 | 1.73 | 96 | 1011.4 |
| 20260510034618 | 20 | 237 | 0.0 | 0.0 | 0.00 | 1.73 | 1.73 | 96 | 1011.2 |
| 20260510034116 | 20 | 222 | 0.0 | 0.0 | 0.00 | 1.73 | 1.73 | 96 | 1011.3 |
| 20260510033612 | 20 | 229 | 0.0 | 0.0 | 0.00 | 1.73 | 1.73 | 96 | 1011.6 |
| 20260510033110 | 20 | 229 | 0.0 | 0.0 | 0.00 | 1.73 | 1.73 | 96 | 1011.7 |
| 20260510032606 | 20 | 229 | 0.0 | 0.0 | 0.00 | 1.73 | 1.73 | 96 | 1011.6 |
| 20260510032101 | 20 | 229 | 0.0 | 0.0 | 0.00 | 1.73 | 1.73 | 96 | 1011.6 |
| 20260510031556 | 20 | 220 | 0.0 | 0.0 | 0.00 | 1.73 | 1.73 | 95 | 1011.2 |
| 20260510031053 | 20 | 230 | 0.0 | 0.0 | 0.00 | 1.73 | 1.73 | 95 | 1011.2 |
| 20260510030548 | 20 | 229 | 0.0 | 0.0 | 0.00 | 1.73 | 1.73 | 95 | 1011.3 |
| 20260510030046 | 20 | 232 | 0.0 | 0.0 | 0.00 | 1.73 | 1.73 | 95 | 1011.4 |
| 20260510025543 | 20 | 239 | 0.0 | 0.0 | 0.00 | 1.73 | 1.73 | 95 | 1011.4 |
| 20260510025040 | 20 | 240 | 0.0 | 0.0 | 0.00 | 1.73 | 1.73 | 95 | 1011.4 |
| 20260510024537 | 20 | 239 | 0.0 | 0.0 | 0.00 | 1.73 | 1.73 | 95 | 1011.4 |
| 20260510024033 | 20 | 238 | 0.0 | 0.0 | 0.00 | 1.73 | 1.73 | 95 | 1011.6 |
| 20260510023529 | 20 | 234 | 0.0 | 0.0 | 0.00 | 1.73 | 1.73 | 95 | 1011.0 |
| 20260510023026 | 20 | 231 | 0.0 | 0.0 | 0.00 | 1.73 | 1.73 | 95 | 1011.4 |
| 20260510022526 | 20 | 226 | 0.0 | 0.0 | 0.00 | 1.73 | 1.73 | 95 | 1011.2 |
| 20260510022020 | 20 | 225 | 0.0 | 0.0 | 0.00 | 1.73 | 1.73 | 95 | 1011.1 |
| 20260510021517 | 20 | 231 | 0.0 | 0.0 | 0.00 | 1.73 | 1.73 | 95 | 1010.9 |
| 20260510021015 | 20 | 236 | 0.0 | 0.0 | 0.00 | 1.73 | 1.73 | 95 | 1010.9 |
| 20260510020509 | 20 | 238 | 0.0 | 0.0 | 0.00 | 1.73 | 1.73 | 95 | 1010.9 |
| 20260510020004 | 20 | 238 | 0.0 | 0.0 | 0.00 | 1.73 | 1.73 | 95 | 1010.8 |
| 20260510015454 | 20 | 234 | 0.0 | 0.0 | 0.00 | 1.73 | 1.73 | 94 | 1010.7 |
| 20260510014949 | 20 | 238 | 0.0 | 0.0 | 0.00 | 1.73 | 1.73 | 94 | 1010.6 |
| 20260510014447 | 21 | 242 | 0.0 | 0.0 | 0.00 | 1.73 | 1.73 | 94 | 1010.6 |
| 20260510013943 | 21 | 241 | 0.0 | 0.0 | 0.00 | 1.73 | 1.73 | 94 | 1010.7 |
| 20260510013433 | 21 | 242 | 0.0 | 0.0 | 0.00 | 1.73 | 1.73 | 94 | 1010.3 |
| 20260510012929 | 21 | 239 | 0.0 | 0.0 | 0.00 | 1.73 | 1.73 | 94 | 1010.3 |
| 20260510012424 | 21 | 237 | 0.0 | 0.0 | 0.00 | 1.73 | 1.73 | 94 | 1010.3 |
| 20260510011919 | 21 | 238 | 0.0 | 0.0 | 0.00 | 1.73 | 1.73 | 94 | 1010.0 |
| 20260510011414 | 21 | 239 | 0.0 | 0.0 | 0.00 | 1.73 | 1.73 | 94 | 1009.9 |
| 20260510010910 | 21 | 241 | 0.0 | 0.0 | 0.00 | 1.73 | 1.73 | 94 | 1009.7 |
| 20260510010408 | 21 | 237 | 0.0 | 0.0 | 0.00 | 1.73 | 1.73 | 94 | 1009.8 |
| 20260510005904 | 21 | 243 | 0.0 | 0.0 | 0.00 | 1.73 | 1.73 | 94 | 1009.6 |
| 20260510005400 | 21 | 240 | 0.0 | 0.0 | 0.00 | 1.73 | 1.73 | 94 | 1009.6 |
| 20260510004858 | 21 | 238 | 0.0 | 0.0 | 0.00 | 1.73 | 1.73 | 94 | 1009.4 |
| 20260510004355 | 21 | 242 | 0.0 | 0.0 | 0.00 | 1.73 | 1.73 | 93 | 1009.4 |
| 20260510003853 | 21 | 241 | 0.0 | 0.0 | 0.00 | 1.73 | 1.73 | 94 | 1009.5 |
| 20260510003350 | 22 | 240 | 0.0 | 0.0 | 0.00 | 1.73 | 1.73 | 93 | 1009.2 |
| 20260510002848 | 22 | 236 | 0.0 | 0.0 | 0.00 | 1.73 | 1.73 | 93 | 1009.2 |
| 20260510002346 | 22 | 235 | 0.0 | 0.0 | 0.00 | 1.73 | 1.73 | 93 | 1009.3 |
| 20260510001843 | 22 | 236 | 0.0 | 0.0 | 0.00 | 1.73 | 1.73 | 93 | 1009.1 |
| 20260510001341 | 22 | 239 | 0.0 | 0.0 | 0.00 | 1.73 | 1.73 | 92 | 1009.1 |
| 20260510000837 | 22 | 203 | 0.0 | 0.0 | 0.00 | 1.73 | 1.73 | 92 | 1009.2 |
| 20260510000334 | 22 | 239 | 0.0 | 0.0 | 0.00 | 1.73 | 1.73 | 92 | 1009.0 |
| 20260509235830 | 22 | 239 | 0.0 | 0.0 | 0.00 | 1.73 | 1.73 | 92 | 1009.1 |
| 20260509235327 | 22 | 246 | 0.0 | 0.0 | 0.00 | 1.73 | 1.73 | 91 | 1009.1 |
| 20260509234823 | 22 | 237 | 0.0 | 0.0 | 0.00 | 1.73 | 1.73 | 90 | 1008.9 |
| 20260509234320 | 22 | 244 | 0.0 | 0.0 | 0.00 | 1.73 | 1.73 | 90 | 1008.8 |
| 20260509233818 | 22 | 236 | 0.0 | 0.0 | 0.00 | 1.73 | 1.73 | 90 | 1008.6 |
| 20260509233316 | 22 | 244 | 0.0 | 0.0 | 0.00 | 1.73 | 1.73 | 89 | 1008.7 |
| 20260509232811 | 22 | 239 | 0.0 | 0.0 | 0.00 | 1.73 | 1.73 | 90 | 1008.6 |
| 20260509232309 | 22 | 241 | 0.0 | 0.0 | 0.00 | 1.73 | 1.73 | 89 | 1008.4 |
| 20260509231805 | 22 | 245 | 0.0 | 0.0 | 0.00 | 1.73 | 1.73 | 89 | 1008.6 |
| 20260509231302 | 22 | 221 | 0.0 | 0.0 | 0.00 | 1.73 | 1.73 | 90 | 1008.5 |
| 20260509230800 | 22 | 237 | 0.0 | 0.0 | 0.00 | 1.73 | 1.73 | 89 | 1008.6 |
| 20260509230256 | 22 | 241 | 0.0 | 0.0 | 0.00 | 1.73 | 1.73 | 89 | 1008.6 |
| 20260509225751 | 22 | 240 | 0.0 | 0.0 | 0.00 | 1.73 | 1.73 | 89 | 1008.7 |
| 20260509225248 | 22 | 243 | 0.0 | 0.0 | 0.00 | 1.73 | 1.73 | 89 | 1008.5 |
| 20260509224744 | 22 | 244 | 0.0 | 0.0 | 0.00 | 1.73 | 1.73 | 89 | 1008.5 |
| 20260509224241 | 22 | 238 | 0.0 | 0.0 | 0.00 | 1.73 | 1.73 | 89 | 1008.5 |
| 20260509223738 | 22 | 248 | 0.0 | 0.0 | 0.00 | 1.73 | 1.73 | 89 | 1008.3 |
| 20260509223235 | 22 | 242 | 0.0 | 0.0 | 0.00 | 1.73 | 1.73 | 88 | 1008.3 |
| 20260509222732 | 22 | 242 | 0.0 | 0.0 | 0.00 | 1.73 | 1.73 | 88 | 1008.5 |
| 20260509222227 | 22 | 242 | 0.0 | 0.0 | 0.00 | 1.73 | 1.73 | 88 | 1008.3 |
| 20260509221723 | 22 | 266 | 0.0 | 0.0 | 0.00 | 1.73 | 1.73 | 88 | 1008.1 |
| 20260509221219 | 22 | 248 | 0.0 | 0.0 | 0.00 | 1.73 | 1.73 | 87 | 1008.4 |
| 20260509220715 | 22 | 253 | 0.0 | 0.0 | 0.00 | 1.73 | 1.73 | 86 | 1008.0 |
| 20260509220212 | 22 | 241 | 0.0 | 0.0 | 0.00 | 1.73 | 1.73 | 87 | 1008.1 |
| 20260509215707 | 22 | 261 | 0.0 | 1.6 | 0.00 | 1.73 | 1.73 | 86 | 1008.4 |
| 20260509215204 | 22 | 286 | 0.0 | 0.0 | 0.00 | 1.73 | 1.73 | 86 | 1008.5 |
| 20260509214702 | 22 | 251 | 0.0 | 0.0 | 0.00 | 1.73 | 1.73 | 87 | 1008.3 |
| 20260509214159 | 23 | 257 | 0.0 | 0.0 | 0.00 | 1.73 | 1.73 | 86 | 1008.1 |
| 20260509213655 | 23 | 250 | 0.0 | 0.0 | 0.00 | 1.73 | 1.73 | 86 | 1008.1 |
| 20260509213151 | 23 | 244 | 0.0 | 0.0 | 0.00 | 1.73 | 1.73 | 85 | 1008.3 |
| 20260509212648 | 23 | 252 | 0.0 | 1.6 | 0.00 | 1.73 | 1.73 | 85 | 1008.1 |
| 20260509212145 | 23 | 250 | 1.6 | 1.6 | 0.00 | 1.73 | 1.73 | 85 | 1008.0 |
| 20260509211641 | 23 | 246 | 0.0 | 0.0 | 0.00 | 1.73 | 1.73 | 84 | 1007.7 |
| 20260509211138 | 23 | 256 | 0.0 | 0.0 | 0.00 | 1.73 | 1.73 | 85 | 1008.0 |
| 20260509210635 | 23 | 250 | 0.0 | 0.0 | 0.00 | 1.73 | 1.73 | 85 | 1008.0 |
| 20260509210132 | 23 | 240 | 0.0 | 0.0 | 0.00 | 1.73 | 1.73 | 84 | 1008.1 |
| 20260509205626 | 23 | 248 | 0.0 | 0.0 | 0.00 | 1.73 | 1.73 | 83 | 1007.9 |
| 20260509205121 | 23 | 247 | 0.0 | 0.0 | 0.00 | 1.73 | 1.73 | 83 | 1008.0 |
| 20260509204618 | 24 | 236 | 0.0 | 0.0 | 0.00 | 1.73 | 1.73 | 84 | 1008.1 |
| 20260509204114 | 23 | 264 | 0.0 | 1.6 | 0.00 | 1.73 | 1.73 | 83 | 1008.4 |
| 20260509203610 | 23 | 259 | 0.0 | 0.0 | 0.00 | 1.73 | 1.73 | 83 | 1008.5 |
| 20260509203108 | 23 | 251 | 0.0 | 0.0 | 0.00 | 1.73 | 1.73 | 83 | 1008.3 |
| 20260509202603 | 23 | 262 | 1.6 | 1.6 | 0.00 | 1.73 | 1.73 | 83 | 1008.6 |
| 20260509202058 | 23 | 227 | 0.0 | 0.0 | 0.00 | 1.73 | 1.73 | 85 | 1008.6 |
| 20260509201553 | 23 | 244 | 0.0 | 0.0 | 0.00 | 1.73 | 1.73 | 85 | 1008.6 |
| 20260509201051 | 23 | 242 | 0.0 | 0.0 | 0.00 | 1.73 | 1.73 | 85 | 1008.5 |
| 20260509200550 | 23 | 247 | 0.0 | 0.0 | 0.00 | 1.73 | 1.73 | 84 | 1008.6 |
| 20260509200047 | 23 | 241 | 0.0 | 0.0 | 0.00 | 1.73 | 1.73 | 84 | 1008.5 |
| 20260509195543 | 23 | 260 | 0.0 | 0.0 | 0.00 | 1.73 | 1.73 | 84 | 1009.0 |
| 20260509195038 | 23 | 251 | 0.0 | 0.0 | 0.00 | 1.73 | 1.73 | 86 | 1008.9 |
| 20260509194533 | 22 | 245 | 0.0 | 0.0 | 0.00 | 1.73 | 1.73 | 87 | 1008.9 |
| 20260509194030 | 22 | 227 | 0.0 | 0.0 | 0.00 | 1.73 | 1.73 | 88 | 1009.2 |
| 20260509193525 | 22 | 239 | 0.0 | 0.0 | 0.00 | 1.73 | 1.73 | 88 | 1009.0 |
| 20260509193022 | 22 | 217 | 0.0 | 0.0 | 0.00 | 1.73 | 1.73 | 87 | 1009.0 |
| 20260509192518 | 22 | 246 | 0.0 | 0.0 | 0.00 | 1.73 | 1.73 | 87 | 1009.2 |
| 20260509192013 | 22 | 217 | 0.0 | 0.0 | 0.00 | 1.73 | 1.73 | 87 | 1009.0 |
| 20260509191508 | 22 | 253 | 0.0 | 0.0 | 0.00 | 1.73 | 1.73 | 86 | 1009.0 |
| 20260509191004 | 22 | 235 | 0.0 | 0.0 | 0.00 | 1.73 | 1.73 | 88 | 1009.1 |
| 20260509190501 | 22 | 297 | 1.6 | 3.2 | 0.00 | 1.73 | 1.73 | 88 | 1008.9 |
| 20260509185959 | 22 | 237 | 0.0 | 0.0 | 0.00 | 1.73 | 1.73 | 89 | 1009.0 |
| 20260509185455 | 22 | 240 | 0.0 | 0.0 | 0.00 | 1.73 | 1.73 | 88 | 1009.0 |
| 20260509184952 | 22 | 275 | 0.0 | 1.6 | 0.00 | 1.73 | 1.73 | 90 | 1009.2 |
| 20260509184450 | 22 | 202 | 0.0 | 0.0 | 0.00 | 1.73 | 1.73 | 90 | 1008.8 |
| 20260509183946 | 22 | 243 | 0.0 | 0.0 | 0.00 | 1.73 | 1.73 | 91 | 1008.8 |
| 20260509183441 | 22 | 236 | 0.0 | 0.0 | 0.00 | 1.73 | 1.73 | 92 | 1008.6 |
| 20260509182938 | 21 | 243 | 0.0 | 0.0 | 0.00 | 1.73 | 1.73 | 92 | 1009.0 |
| 20260509182434 | 21 | 244 | 0.0 | 0.0 | 0.00 | 1.73 | 1.73 | 93 | 1009.3 |
| 20260509181932 | 20 | 251 | 0.0 | 0.0 | 0.00 | 1.73 | 1.73 | 97 | 1009.2 |
| 20260509181430 | 20 | 244 | 0.0 | 0.0 | 0.00 | 1.73 | 1.73 | 99 | 1009.4 |
| 20260509180927 | 20 | 235 | 0.0 | 0.0 | 0.00 | 1.73 | 1.73 | 99 | 1009.3 |
| 20260509180422 | 20 | 242 | 0.0 | 0.0 | 0.00 | 1.73 | 1.73 | 99 | 1009.5 |
| 20260509175919 | 20 | 237 | 0.0 | 0.0 | 0.00 | 1.73 | 1.73 | 99 | 1009.6 |
| 20260509175414 | 20 | 248 | 0.0 | 0.0 | 0.00 | 1.73 | 1.73 | 99 | 1009.7 |
| 20260509174911 | 20 | 248 | 0.0 | 0.0 | 0.00 | 1.73 | 1.73 | 99 | 1009.8 |
| 20260509174407 | 20 | 244 | 0.0 | 0.0 | 0.00 | 1.73 | 1.73 | 99 | 1009.8 |
| 20260509173904 | 20 | 247 | 0.0 | 0.0 | 0.00 | 1.73 | 1.73 | 99 | 1009.6 |
| 20260509173358 | 20 | 244 | 0.0 | 0.0 | 0.00 | 1.73 | 1.73 | 99 | 1009.6 |
| 20260509172854 | 20 | 247 | 0.0 | 0.0 | 0.00 | 1.73 | 1.73 | 99 | 1009.9 |
| 20260509172351 | 20 | 248 | 0.0 | 0.0 | 0.00 | 1.73 | 1.73 | 99 | 1009.7 |
| 20260509171846 | 20 | 251 | 0.0 | 0.0 | 0.00 | 1.73 | 1.73 | 99 | 1010.0 |
| 20260509171337 | 20 | 247 | 0.0 | 0.0 | 0.00 | 1.73 | 1.73 | 99 | 1009.9 |
| 20260509170834 | 20 | 249 | 0.0 | 0.0 | 0.00 | 1.73 | 1.73 | 99 | 1010.1 |
| 20260509170329 | 20 | 249 | 0.0 | 0.0 | 0.00 | 1.73 | 1.73 | 99 | 1010.3 |
| 20260509165824 | 20 | 248 | 0.0 | 0.0 | 0.00 | 1.73 | 1.73 | 99 | 1010.2 |
| 20260509165319 | 20 | 248 | 0.0 | 0.0 | 0.00 | 1.73 | 1.73 | 99 | 1010.5 |
| 20260509164815 | 20 | 248 | 0.0 | 0.0 | 0.00 | 1.73 | 1.73 | 99 | 1010.6 |
| 20260509164312 | 20 | 248 | 0.0 | 0.0 | 0.00 | 1.73 | 1.73 | 99 | 1010.4 |
| 20260509163808 | 20 | 244 | 0.0 | 0.0 | 0.00 | 1.73 | 1.73 | 99 | 1010.4 |
| 20260509163304 | 20 | 246 | 0.0 | 0.0 | 0.00 | 1.73 | 1.73 | 99 | 1010.5 |
| 20260509162803 | 20 | 246 | 0.0 | 0.0 | 0.00 | 1.73 | 1.73 | 99 | 1010.5 |
| 20260509162257 | 20 | 247 | 0.0 | 0.0 | 0.00 | 1.73 | 1.73 | 99 | 1010.4 |
| 20260509161753 | 20 | 248 | 0.0 | 0.0 | 0.00 | 1.73 | 1.73 | 99 | 1010.3 |
| 20260509161250 | 20 | 251 | 0.0 | 0.0 | 0.00 | 1.73 | 1.73 | 99 | 1010.4 |
| 20260509160745 | 20 | 248 | 0.0 | 0.0 | 0.00 | 1.73 | 1.73 | 99 | 1010.1 |
| 20260509160242 | 19 | 247 | 0.0 | 0.0 | 0.00 | 1.73 | 1.73 | 99 | 1010.1 |
| 20260509155737 | 19 | 244 | 0.0 | 0.0 | 0.00 | 1.73 | 1.73 | 99 | 1010.3 |
| 20260509155234 | 19 | 242 | 0.0 | 0.0 | 0.00 | 1.73 | 1.73 | 99 | 1010.0 |
| 20260509154730 | 19 | 248 | 0.0 | 0.0 | 0.00 | 1.73 | 1.73 | 99 | 1010.0 |
| 20260509154227 | 18 | 244 | 0.0 | 0.0 | 0.00 | 1.73 | 1.73 | 99 | 1010.3 |
| 20260509153724 | 19 | 245 | 0.0 | 0.0 | 0.00 | 1.73 | 1.73 | 99 | 1010.4 |
| 20260509153220 | 18 | 241 | 0.0 | 0.0 | 0.00 | 1.73 | 1.73 | 99 | 1010.4 |
| 20260509152716 | 18 | 241 | 0.0 | 0.0 | 0.00 | 1.73 | 1.73 | 99 | 1010.4 |
| 20260509152213 | 18 | 239 | 0.0 | 0.0 | 0.00 | 1.73 | 1.73 | 99 | 1010.4 |
| 20260509151709 | 18 | 238 | 0.0 | 0.0 | 0.00 | 1.73 | 1.73 | 99 | 1010.3 |
| 20260509151206 | 18 | 240 | 0.0 | 0.0 | 0.00 | 1.73 | 1.73 | 99 | 1010.5 |
| 20260509150704 | 18 | 243 | 0.0 | 0.0 | 0.00 | 1.73 | 1.73 | 99 | 1010.3 |
| 20260509150202 | 18 | 237 | 0.0 | 0.0 | 0.00 | 1.73 | 1.73 | 99 | 1010.1 |
| 20260509145658 | 18 | 241 | 0.0 | 0.0 | 0.00 | 1.73 | 1.73 | 99 | 1010.1 |
| 20260509145154 | 18 | 245 | 0.0 | 0.0 | 0.00 | 1.73 | 1.73 | 99 | 1010.2 |
| 20260509144650 | 18 | 240 | 0.0 | 0.0 | 0.00 | 1.73 | 1.73 | 99 | 1010.2 |
| 20260509144147 | 18 | 240 | 0.0 | 0.0 | 0.00 | 1.73 | 1.73 | 99 | 1010.4 |
| 20260509143644 | 18 | 241 | 0.0 | 0.0 | 0.00 | 1.73 | 1.73 | 99 | 1010.1 |
| 20260509143142 | 18 | 247 | 0.0 | 0.0 | 0.00 | 1.73 | 1.73 | 99 | 1010.0 |
| 20260509142637 | 18 | 232 | 0.0 | 0.0 | 0.00 | 1.73 | 1.73 | 99 | 1010.1 |
| 20260509142134 | 18 | 241 | 0.0 | 0.0 | 0.00 | 1.73 | 1.73 | 99 | 1009.9 |
| 20260509141630 | 18 | 238 | 0.0 | 0.0 | 0.00 | 1.73 | 1.73 | 99 | 1009.9 |
| 20260509141126 | 18 | 241 | 0.0 | 0.0 | 0.00 | 1.73 | 1.73 | 99 | 1009.7 |
| 20260509140623 | 18 | 242 | 0.0 | 0.0 | 0.00 | 1.73 | 1.73 | 99 | 1009.7 |
| 20260509140121 | 18 | 241 | 0.0 | 0.0 | 0.00 | 1.73 | 1.73 | 99 | 1009.5 |
| 20260509135618 | 18 | 229 | 0.0 | 0.0 | 0.00 | 1.73 | 1.73 | 99 | 1009.4 |
| 20260509135116 | 18 | 243 | 0.0 | 0.0 | 0.00 | 1.73 | 1.73 | 99 | 1009.2 |
| 20260509134612 | 18 | 244 | 0.0 | 0.0 | 0.00 | 1.73 | 1.73 | 99 | 1009.6 |
| 20260509134110 | 18 | 241 | 0.0 | 0.0 | 0.00 | 1.73 | 1.73 | 99 | 1009.4 |
| 20260509133607 | 18 | 241 | 0.0 | 0.0 | 0.00 | 1.73 | 1.73 | 99 | 1009.3 |
| 20260509133104 | 18 | 242 | 0.0 | 0.0 | 0.00 | 1.73 | 1.73 | 99 | 1009.0 |
| 20260509132603 | 18 | 246 | 0.0 | 0.0 | 0.00 | 1.73 | 1.73 | 99 | 1008.9 |
| 20260509132101 | 18 | 247 | 0.0 | 0.0 | 0.00 | 1.73 | 1.73 | 99 | 1009.0 |
| 20260509131556 | 18 | 247 | 0.0 | 0.0 | 0.00 | 1.73 | 1.73 | 99 | 1009.1 |
| 20260509131054 | 18 | 242 | 0.0 | 0.0 | 0.00 | 1.73 | 1.73 | 99 | 1009.2 |
| 20260509130549 | 17 | 243 | 0.0 | 0.0 | 0.00 | 1.73 | 1.73 | 99 | 1009.2 |
| 20260509130046 | 17 | 232 | 0.0 | 0.0 | 0.00 | 1.73 | 1.73 | 99 | 1009.3 |
| 20260509125543 | 17 | 241 | 0.0 | 0.0 | 0.00 | 1.73 | 1.73 | 99 | 1008.8 |
| 20260509125039 | 17 | 242 | 0.0 | 0.0 | 0.00 | 1.73 | 1.73 | 99 | 1009.1 |
| 20260509124536 | 17 | 242 | 0.0 | 0.0 | 0.00 | 1.73 | 1.73 | 99 | 1009.1 |
| 20260509124033 | 17 | 239 | 0.0 | 0.0 | 0.00 | 1.73 | 1.73 | 99 | 1008.8 |
| 20260509123532 | 17 | 238 | 0.0 | 0.0 | 0.00 | 1.73 | 1.73 | 99 | 1008.5 |
| 20260509123027 | 17 | 255 | 0.0 | 0.0 | 0.00 | 1.73 | 1.73 | 99 | 1008.4 |
| 20260509122524 | 17 | 281 | 1.6 | 1.6 | 0.13 | 1.73 | 1.73 | 99 | 1008.5 |
| 20260509122021 | 17 | 251 | 0.0 | 0.0 | 0.13 | 1.73 | 1.73 | 99 | 1008.0 |
| 20260509121518 | 17 | 321 | 3.2 | 4.8 | 0.00 | 1.70 | 1.70 | 99 | 1007.3 |
| 20260509121016 | 17 | 249 | 0.0 | 0.0 | 0.00 | 1.70 | 1.70 | 99 | 1006.4 |
| 20260509120514 | 17 | 218 | 0.0 | 0.0 | 0.18 | 1.70 | 1.70 | 99 | 1004.6 |
| 20260509120012 | 17 | 199 | 0.0 | 0.0 | 0.36 | 1.70 | 1.70 | 99 | 1005.5 |
| 20260509115508 | 17 | 192 | 0.0 | 0.0 | 0.30 | 1.68 | 1.68 | 99 | 1005.9 |
| 20260509115006 | 17 | 196 | 0.0 | 0.0 | 0.30 | 1.65 | 1.65 | 99 | 1007.6 |
| 20260509114504 | 17 | 244 | 0.0 | 0.0 | 0.18 | 1.63 | 1.63 | 99 | 1008.4 |
| 20260509114003 | 17 | 239 | 0.0 | 0.0 | 0.13 | 1.60 | 1.60 | 99 | 1008.1 |
| 20260509113500 | 17 | 236 | 0.0 | 0.0 | 0.13 | 1.60 | 1.60 | 99 | 1008.6 |
| 20260509112957 | 17 | 242 | 0.0 | 0.0 | 0.18 | 1.57 | 1.57 | 99 | 1008.6 |
| 20260509112454 | 17 | 239 | 0.0 | 0.0 | 0.48 | 1.57 | 1.57 | 99 | 1008.6 |
| 20260509111950 | 17 | 241 | 0.0 | 0.0 | 0.30 | 1.55 | 1.55 | 99 | 1009.2 |
| 20260509111448 | 17 | 239 | 0.0 | 0.0 | 0.30 | 1.52 | 1.52 | 99 | 1009.2 |
| 20260509110946 | 17 | 243 | 0.0 | 0.0 | 0.13 | 1.50 | 1.50 | 99 | 1009.5 |
| 20260509110441 | 17 | 247 | 0.0 | 0.0 | 0.00 | 1.47 | 1.47 | 99 | 1009.2 |
| 20260509105939 | 17 | 248 | 0.0 | 0.0 | 0.00 | 1.47 | 1.47 | 99 | 1008.6 |
| 20260509105438 | 17 | 245 | 0.0 | 0.0 | 0.00 | 1.47 | 1.47 | 99 | 1008.5 |
| 20260509104934 | 17 | 245 | 0.0 | 0.0 | 0.18 | 1.47 | 1.47 | 99 | 1007.9 |